Tracking 30923 objects as of 1-Jul-2025
HD Live streaming from Space Station
objects crossing your sky now

ONEWEB-0112

Track ONEWEB-0112 now!
10-day predictions
ONEWEB-0112 is classified as:


NORAD ID: 48051
Int'l Code: 2021-025K
Perigee: 1,215.6 km
Apogee: 1,218.2 km
Inclination: 87.9 °
Period: 109.6 minutes
Semi major axis: 7587 km
RCS: Unknown
Launch date: March 25, 2021
Source: United States (US)
Launch site: VOSTOCHNY COSMODROME (VOSTO)
Your satellite tracking list
COSMOS 249 DEB
Track 1 satellite(s)




NASA's NSSDC Master Catalog

Two Line Element Set (TLE):
1 48051U 21025K   25181.85480690  .00000031  00000-0  49238-4 0  9999
2 48051  87.8952  30.0068 0001729  84.0304 276.1022 13.13470330207480
Source of the keplerian elements: AFSPC